Regional Weather Roundup
Issued by NWS

Home | Current Version | Previous Version | Text Only | Print | Product List | Glossary Off
Versions: 1 2 3 4 5 6 7 8 9 10 11 12 13 14 15 16 17 18 19 20 21 22 23 24 25 26 27 28 29 30 31 32 33 34 35 36 37 38 39 40 41 42 43 44 45 46 47 48 49 50

000
ASUS43 KFSD 241802
RWRSD

WEATHER ROUNDUP FOR SOUTH DAKOTA
NATIONAL WEATHER SERVICE SIOUX FALLS SD
100 PM CDT SUN JUL 24 2016

NOTE: "FAIR" INDICATES FEW OR NO CLOUDS BELOW 12,000 FEET WITH NO
SIGNIFICANT WEATHER AND/OR OBSTRUCTIONS TO VISIBILITY.


SDZ001>005-009-010-012>017-241900-
NORTHWEST AND NORTH CENTRAL SOUTH DAKOTA

CITY           SKY/WX    TMP DP  RH WIND       PRES   REMARKS
BUFFALO          N/A     83  44  25 VRB3      30.06F
FAITH            N/A     77  44  30 SW5       30.13F
MOBRIDGE       SUNNY     80  56  43 W12       30.05R
$$

SDZ012>016-024>037-041>051-057-063-072>074-241900-
SOUTHWEST AND SOUTH CENTRAL SOUTH DAKOTA

CITY           SKY/WX    TMP DP  RH WIND       PRES   REMARKS
RAPID CTY ARPT CLOUDY    78  48  34 S5        30.14F
PIERRE         MOSUNNY   75  57  53 W7        30.09R
CUSTER         PTSUNNY   74  43  32 SE8       30.27S
ELLSWORTH AFB  CLOUDY    79  50  35 SE6         N/A
PHILIP         CLOUDY    81  56  42 W5        30.11F
PINE RIDGE     SUNNY     84  44  24 E7        30.16F
WINNER         MOCLDY    78  53  41 CALM      30.11S
$$

SDZ004>011-016>023-039-040-241900-
NORTHEAST SOUTH DAKOTA

CITY           SKY/WX    TMP DP  RH WIND       PRES   REMARKS
ABERDEEN       SUNNY     81  57  43 N16       30.01R
WATERTOWN      CLOUDY    76  58  53 NW10      30.00R
BROOKINGS      PTSUNNY   76  62  62 NW12      30.02S
SISSETON         N/A     80  61  52 N14       29.93F
$$

SDZ017-020-022-023-036>040-048>070-241900-
SOUTHEAST SOUTH DAKOTA

CITY           SKY/WX    TMP DP  RH WIND       PRES   REMARKS
SIOUX FALLS    CLOUDY    79  60  52 VRB7      30.02S
HURON          CLOUDY    75  59  57 NW10      30.06R
CHAMBERLAIN    CLOUDY    78  58  49 N7        30.10R
MITCHELL       CLOUDY    73  64  73 CALM      30.07R
YANKTON        PTSUNNY   81  59  47 NW15      30.05R
$$

ABBREVIATIONS USED IN REMARKS
   TC - TEMPERATURE IN CELSIUS
  WCI - WIND CHILL INDEX
   HX - HEAT INDEX
  VSB - VISIBILITY




USA.gov is the U.S. government's official web portal to all federal, state and local government web resources and services.